User: anonymous   Login
Location: Unspecified
(0.0000°N, 0.0000°E)
Time: 06:04:26
(UTC+00:00)
Language:

AIST 2D - Orbit

View from above orbital plane
View from above orbital plane
View from above satellite
View from above satellite

Ground track
Ground track

The orbit data is extracted from the following two-line orbital elements,

1 41465U 16026B   18227.72686693  .00001028  00000-0  34717-4 0  9999
2 41465  97.2169 125.8867 0012219 134.5741 309.7201 15.32860083128462
Epoch (UTC): 15 August 2018 17:26:41
Eccentricity: 0.0012219
inclination: 97.2169°
perigee height: 459 km
apogee height: 475 km
right ascension of ascending node: 125.8867°
argument of perigee: 134.5741°
revolutions per day: 15.32860083
mean anomaly at epoch: 309.7201°
orbit number at epoch: 12846

The dashed part of the orbit path shows where the satellite is in the earth's shadow,  

DLR